User: anonymous
Location: Deerlick Astronomy Village
(33.5614°N, 82.7631°W)
Time: 09:30:14
(UTC-04:00)
Language:

Iridium 66 - Orbit

View from above orbital plane
View from above orbital plane
View from above satellite
View from above satellite

Ground track
Ground track

The orbit data is extracted from the following two-line orbital elements,

1 25289U 98021E   14211.44034635  .00000258  00000-0  84935-4 0  7967
2 25289 086.3979 303.8185 0002297 111.8022 290.6448 14.34219269854127
Epoch (UTC): 30 July 2014 10:34:05
Eccentricity: 0.0002297
inclination: 86.3979°
perigee height: 776 km
apogee height: 779 km
right ascension of ascending node: 303.8185°
argument of perigee: 111.8022°
revolutions per day: 14.34219269
mean anomaly at epoch: 290.6448°
orbit number at epoch: 85412

The dashed part of the orbit path shows where the satellite is in the earth's shadow,  

DLR